{"data":{"norad_id":67996,"epoch":"2026-05-24T12:50:30.274368Z","epoch_age_seconds":111218,"freshness":"FRESH","line1":"1 67996U 26039L   26144.53507262  .00029269  00000+0  10674-2 0  9991","line2":"2 67996  43.0043 340.5359 0001926 271.3469  88.7162 15.27627486 13309","mean_motion":15.27627486,"eccentricity":0.0001926,"inclination_deg":43.0043,"raan_deg":340.5359,"arg_perigee_deg":271.3469,"mean_anomaly_deg":88.7162,"bstar":0.0010674,"rev_number":1330,"period_min":94.263818450305,"perigee_km":481.58547249898,"apogee_km":484.22834661294,"semimajor_km":6861.043909556,"source":"CELESTRAK","updated_at":"2026-05-25T13:38:21.780948Z"}}